Weather History for Fort Morgan, CO

Change the Weather History Date:

Thursday, August 14, 2014

  Actual Average (KAKO) Record (KAKO)
Temperature  
Mean Temperature 76 °F 73 °F  
Max Temperature 91 °F 86 °F 100 °F (1937)
Min Temperature 61 °F 59 °F 48 °F (1964)
Degree Days  
Heating Degree Days 0    
Month to date heating degree days  
Cooling Degree Days 11    
Month to date cooling degree days  
Growing Degree Days 26 (Base 50)    
Moisture  
Dew Point 58 °F    
Average Humidity 65    
Maximum Humidity 93    
Minimum Humidity 26    
Precipitation  
Precipitation 0.00 in 0.08 in 1.71 in (1945)
Month to date precipitation 1.22  
Year to date precipitation 12.41  
Sea Level Pressure  
Sea Level Pressure 30.03 in    
Wind  
Wind Speed 6 mph (NE)    
Max Wind Speed 30 mph    
Max Gust Speed 38 mph    
Visibility 10 miles    
Events Thunderstorm    
T = Trace of Precipitation, MM = Missing Value Source: NWS Daily Summary

Daily Weather History Graph

Daily Weather History Graph

Search for Another Location

Airport:

Trip Planner

Search our weather history database for the weather conditions in past years. The results will help you decide how hot, cold, wet, or windy it might be!

Date:

Astronomy

Aug. 14, 2014 Rise Set
Actual Time 6:05 AM MDT 7:53 PM MDT
Civil Twilight 5:36 AM MDT 8:22 PM MDT
Nautical Twilight 5:00 AM MDT 8:58 PM MDT
Astronomical Twilight 4:22 AM MDT 9:36 PM MDT
Moon 10:17 PM MDT (8/14) 10:45 AM MDT (8/14)
Length of Visible Light 14h 46m
Length of Day
13h 48m
Waning Gibbous, 78% of the Moon is Illuminated
Aug 14
Waning Gibbous
Aug 17
Last Quarter
Aug 25
New
Sep 2
First Quarter
Sep 8
Full

Hourly Weather History & Observations

Time (MDT) Temp. Heat Index Dew Point Humidity Pressure Visibility Wind Dir Wind Speed Gust Speed Precip Events Conditions
12:15 AM 71.8 °F - 55.4 °F 56% 30.07 in 10.0 mi SE 5.8 mph - N/A   Clear
12:35 AM 69.6 °F - 56.1 °F 62% 30.06 in 10.0 mi East 3.5 mph - N/A   Clear
12:55 AM 68.9 °F - 55.9 °F 63% 30.06 in 10.0 mi East 3.5 mph - N/A   Clear
1:15 AM 68.2 °F - 56.5 °F 66% 30.06 in 10.0 mi East 4.6 mph - N/A   Clear
1:35 AM 67.1 °F - 56.7 °F 69% 30.05 in 10.0 mi East 4.6 mph - N/A   Clear
1:55 AM 67.3 °F - 57.2 °F 70% 30.05 in 10.0 mi East 4.6 mph - N/A   Clear
2:15 AM 67.1 °F - 57.0 °F 70% 30.04 in 10.0 mi ENE 3.5 mph - N/A   Clear
2:35 AM 66.2 °F - 57.6 °F 74% 30.03 in 10.0 mi ENE 5.8 mph - N/A   Clear
2:55 AM 65.8 °F - 58.1 °F 76% 30.03 in 10.0 mi ENE 5.8 mph - N/A   Clear
3:15 AM 64.4 °F - 58.6 °F 82% 30.03 in 10.0 mi NE 8.1 mph - N/A   Clear
3:35 AM 63.5 °F - 58.8 °F 85% 30.03 in 10.0 mi ENE 8.1 mph - N/A   Clear
3:55 AM 62.8 °F - 58.6 °F 86% 30.03 in 10.0 mi NE 5.8 mph - N/A   Clear
4:15 AM 62.1 °F - 58.1 °F 87% 30.03 in 10.0 mi ENE 4.6 mph - N/A   Clear
4:35 AM 61.9 °F - 58.1 °F 87% 30.03 in 10.0 mi ENE 4.6 mph - N/A   Clear
4:55 AM 61.3 °F - 57.4 °F 87% 30.02 in 10.0 mi NE 4.6 mph - N/A   Clear
5:15 AM 61.0 °F - 57.2 °F 87% 30.03 in 10.0 mi NNE 5.8 mph - N/A   Clear
5:35 AM 61.2 °F - 57.2 °F 87% 30.02 in 10.0 mi NE 4.6 mph - N/A   Clear
5:55 AM 61.7 °F - 57.2 °F 85% 30.03 in 10.0 mi Calm Calm - N/A   Clear
6:15 AM 61.2 °F - 57.6 °F 88% 30.04 in 10.0 mi Calm Calm - N/A   Clear
6:35 AM 61.9 °F - 58.1 °F 87% 30.04 in 10.0 mi North 5.8 mph - N/A   Clear
6:55 AM 63.7 °F - 59.5 °F 86% 30.04 in 10.0 mi North 3.5 mph - N/A   Clear
7:15 AM 65.8 °F - 59.5 °F 80% 30.05 in 10.0 mi North 5.8 mph - N/A   Clear
7:35 AM 67.1 °F - 58.8 °F 75% 30.04 in 10.0 mi North 5.8 mph - N/A   Clear
7:55 AM 67.5 °F - 59.2 °F 75% 30.03 in 10.0 mi North 9.2 mph - N/A   Clear
8:15 AM 68.7 °F - 59.0 °F 71% 30.04 in 10.0 mi North 9.2 mph - N/A   Clear
8:35 AM 70.2 °F - 59.0 °F 68% 30.04 in 10.0 mi North 9.2 mph - N/A   Clear
8:55 AM 71.4 °F - 60.1 °F 67% 30.03 in 10.0 mi North 10.4 mph - N/A   Clear
9:15 AM 73.9 °F - 59.7 °F 61% 30.04 in 10.0 mi NE 6.9 mph - N/A   Clear
9:35 AM 74.8 °F - 59.9 °F 60% 30.04 in 10.0 mi NE 5.8 mph - N/A   Clear
9:55 AM 77.2 °F - 59.4 °F 54% 30.04 in 10.0 mi ENE 4.6 mph - N/A   Clear
10:15 AM 78.3 °F - 58.6 °F 51% 30.04 in 10.0 mi East 4.6 mph - N/A   Clear
10:35 AM 80.6 °F 81.1 °F 59.0 °F 48% 30.04 in 10.0 mi ENE 4.6 mph - N/A   Clear
11:15 AM 82.9 °F 82.0 °F 54.7 °F 38% 30.03 in 10.0 mi NNE 4.6 mph - N/A   Clear
11:35 AM 83.3 °F 82.2 °F 54.5 °F 37% 30.03 in 10.0 mi North 5.8 mph - N/A   Clear
11:55 AM 86.2 °F 84.2 °F 53.4 °F 32% 30.02 in 10.0 mi ENE 4.6 mph - N/A   Clear
12:15 PM 86.0 °F 84.2 °F 54.1 °F 33% 30.02 in 10.0 mi East 5.8 mph - N/A   Clear
12:35 PM 87.3 °F 85.5 °F 55.0 °F 33% 30.02 in 10.0 mi ENE 6.9 mph - N/A   Clear
12:55 PM 88.7 °F 86.3 °F 53.1 °F 29% 30.01 in 10.0 mi ENE 9.2 mph - N/A   Mostly Cloudy
1:15 PM 89.2 °F 86.9 °F 53.4 °F 29% 30.01 in 10.0 mi East 8.1 mph - N/A   Overcast
1:35 PM 90.3 °F 87.9 °F 53.4 °F 28% 30.00 in 10.0 mi ENE 8.1 mph - N/A   Mostly Cloudy
1:55 PM 89.1 °F 86.7 °F 53.2 °F 29% 29.99 in 10.0 mi East 9.2 mph - N/A   Mostly Cloudy
2:15 PM 90.1 °F - 52.3 °F 27% 29.99 in 10.0 mi East 10.4 mph - N/A   Scattered Clouds
2:55 PM 90.9 °F - 51.4 °F 26% 29.99 in 10.0 mi ESE 6.9 mph - N/A   Clear
3:15 PM 91.0 °F 88.5 °F 53.1 °F 27% 29.98 in 10.0 mi ESE 5.8 mph - N/A   Clear
3:35 PM 91.2 °F - 52.3 °F 27% 29.98 in 10.0 mi SSE 6.9 mph - N/A   Clear
3:55 PM 89.2 °F - 52.0 °F 28% 29.97 in 10.0 mi Calm Calm - N/A   Clear
4:15 PM 91.4 °F - 52.0 °F 26% 29.97 in 10.0 mi ENE 4.6 mph - N/A   Clear
4:35 PM 90.3 °F 87.9 °F 53.1 °F 28% 29.95 in 10.0 mi South 4.6 mph - N/A   Clear
4:55 PM 87.4 °F - 52.7 °F 30% 29.97 in 10.0 mi West 4.6 mph - N/A Thunderstorm Mostly Cloudy
5:15 PM 75.9 °F - 56.3 °F 50% 29.97 in 10.0 mi WNW 29.9 mph 38.0 mph N/A Thunderstorm Overcast
5:35 PM 72.9 °F - 57.9 °F 59% 30.00 in 10.0 mi NW 25.3 mph 35.7 mph N/A   Overcast
5:55 PM 68.9 °F - 58.3 °F 69% 30.02 in 10.0 mi NNW 15.0 mph 26.5 mph N/A   Mostly Cloudy
6:15 PM 71.6 °F - 58.5 °F 63% 30.02 in 10.0 mi NW 6.9 mph - N/A   Mostly Cloudy
6:35 PM 72.1 °F - 58.3 °F 62% 30.03 in 10.0 mi North 8.1 mph - N/A Thunderstorm Scattered Clouds
6:55 PM 72.5 °F - 57.4 °F 59% 30.05 in 10.0 mi ESE 6.9 mph - N/A   Mostly Cloudy
7:15 PM 70.3 °F - 59.2 °F 68% 30.06 in 10.0 mi ESE 8.1 mph - N/A   Overcast
7:35 PM 67.8 °F - 61.3 °F 80% 30.08 in 10.0 mi East 5.8 mph - N/A Thunderstorm Overcast
7:55 PM 65.7 °F - 62.6 °F 90% 30.08 in 10.0 mi SE 9.2 mph - N/A   Overcast
8:15 PM 64.9 °F - 62.6 °F 92% 30.07 in 10.0 mi South 10.4 mph - N/A   Overcast
8:35 PM 64.6 °F - 62.6 °F 93% 30.07 in 10.0 mi SSE 5.8 mph - N/A   Scattered Clouds
8:55 PM 64.4 °F - 61.9 °F 92% 30.06 in 10.0 mi South 4.6 mph - N/A   Scattered Clouds
9:15 PM 63.7 °F - 61.7 °F 93% 30.05 in 10.0 mi Calm Calm - N/A   Scattered Clouds
9:35 PM 64.6 °F - 60.8 °F 88% 30.06 in 10.0 mi Calm Calm - N/A   Clear
9:55 PM 63.5 °F - 60.8 °F 91% 30.06 in 10.0 mi WNW 8.1 mph - N/A   Clear
10:15 PM 63.7 °F - 61.2 °F 91% 30.06 in 10.0 mi WNW 9.2 mph - N/A   Clear
10:35 PM 64.4 °F - 61.7 °F 91% 30.06 in 10.0 mi WNW 12.7 mph - N/A   Scattered Clouds
10:55 PM 64.9 °F - 61.5 °F 89% 30.06 in 10.0 mi WNW 11.5 mph 19.6 mph N/A   Overcast
11:15 PM 64.9 °F - 61.0 °F 87% 30.04 in 10.0 mi NW 8.1 mph - N/A   Mostly Cloudy
11:55 PM 64.8 °F - 60.8 °F 87% 30.03 in 10.0 mi WNW 9.2 mph - N/A   Clear